Retour au catalogue

STARLINK-31082

ActifCommunicationsVLEO
NORAD 58606·PAYLOAD·🇺🇸 United States

Lancé Dec 19, 2023 depuis Cape Canaveral Space Force Station

Loading…

Prochains Passages (prochaines 24 heures)

TLE

FraisSource: CelesTrak SupGP

Époque: Sep 15, 2026, 02:51 UTC

1 58606C 23200T   26258.11923611  .00033084  00000+0  11982-2 0  2587
2 58606  43.0001 178.9698 0001422 261.8924  61.7192 15.27565836    19

Suivez STARLINK-31082 en temps réel avec AllMySat

Download on the App Store